Satellite: ANTELSAT Catalog number: 40034 Epoch time: 15029.27948631 Element set: 659 Inclination: 097.9582 deg RA of node: 284.2941 deg Eccentricity: 0.0060056 Arg of perigee: 204.0458 deg Mean anomaly: 155.7944 deg Mean motion: 14.72157220 rev/day Decay rate: 1.401e-05 rev/day^2 Epoch rev: 3285 Checksum: 296
/EX SB KEPS @ AMSAT $ORB15029.W Orbital Elements 15029.WEATHER
HR AMSAT ORBITAL ELEMENTS FOR WEATHER SATELLITES FROM WA5QGD FORT WORTH,TX January 29, 2015 BID: ORB15029.W TO ALL RADIO AMATEURS BT
Satellite: MET-2/21 Catalog number: 22782 Epoch time: 15028.88086603 Element set: 287 Inclination: 082.5515 deg RA of node: 354.2115 deg Eccentricity: 0.0021967 Arg of perigee: 355.5961 deg Mean anomaly: 033.5190 deg Mean motion: 13.83758686 rev/day Decay rate: 7.9e-07 rev/day^2 Epoch rev: 8133 Checksum: 322
Satellite: OKEAN-4 Catalog number: 23317 Epoch time: 15029.24055796 Element set: 772 Inclination: 082.5362 deg RA of node: 215.8894 deg Eccentricity: 0.0021405 Arg of perigee: 072.2369 deg Mean anomaly: 085.1349 deg Mean motion: 14.86251655 rev/day Decay rate: 1.315e-05 rev/day^2 Epoch rev: 9667 Checksum: 315
Satellite: NOAA-14 Catalog number: 23455 Epoch time: 15029.51952155 Element set: 67 Inclination: 098.7615 deg RA of node: 113.7780 deg Eccentricity: 0.0010544 Arg of perigee: 114.7694 deg Mean anomaly: 001.9177 deg Mean motion: 14.14018058 rev/day Decay rate: 1.14e-06 rev/day^2 Epoch rev: 3593 Checksum: 289
Satellite: NOAA-15 Catalog number: 25338 Epoch time: 15029.56026703 Element set: 507 Inclination: 098.7669 deg RA of node: 028.1529 deg Eccentricity: 0.0010329 Arg of perigee: 205.5980 deg Mean anomaly: 260.3009 deg Mean motion: 14.25555293 rev/day Decay rate: 2.10e-06 rev/day^2 Epoch rev: 86909 Checksum: 307
Satellite: RESURS Catalog number: 25394 Epoch time: 15028.51319563 Element set: 864 Inclination: 098.4472 deg RA of node: 348.7759 deg Eccentricity: 0.0000968 Arg of perigee: 019.8082 deg Mean anomaly: 117.3905 deg Mean motion: 14.24437258 rev/day Decay rate: 1.7e-07 rev/day^2 Epoch rev: 86039 Checksum: 328
Satellite: FENGYUN1 Catalog number: 25730 Epoch time: 15028.49927626 Element set: 353 Inclination: 098.9324 deg RA of node: 353.5415 deg Eccentricity: 0.0018523 Arg of perigee: 188.5422 deg Mean anomaly: 310.7553 deg Mean motion: 14.12934648 rev/day Decay rate: 1.375e-05 rev/day^2 Epoch rev: 80932 Checksum: 312
Satellite: OKEAN-0 Catalog number: 25860 Epoch time: 15028.53924498 Element set: 478 Inclination: 098.0762 deg RA of node: 356.5356 deg Eccentricity: 0.0001833 Arg of perigee: 089.5339 deg Mean anomaly: 047.5610 deg Mean motion: 14.75764429 rev/day Decay rate: 7.34e-06 rev/day^2 Epoch rev: 83538 Checksum: 340
Satellite: NOAA-16 Catalog number: 26536 Epoch time: 15029.52666043 Element set: 4 Inclination: 098.9602 deg RA of node: 095.5279 deg Eccentricity: 0.0009647 Arg of perigee: 262.4235 deg Mean anomaly: 097.5841 deg Mean motion: 14.13072186 rev/day Decay rate: 6.3e-07 rev/day^2 Epoch rev: 74007 Checksum: 308
Satellite: NOAA-17 Catalog number: 27453 Epoch time: 15029.53082357 Element set: 900 Inclination: 098.3290 deg RA of node: 022.4806 deg Eccentricity: 0.0011058 Arg of perigee: 225.2585 deg Mean anomaly: 134.7696 deg Mean motion: 14.24846904 rev/day Decay rate: 1.12e-06 rev/day^2 Epoch rev: 65491 Checksum: 302
Satellite: NOAA-18 Catalog number: 28654 Epoch time: 15029.56759139 Element set: 419 Inclination: 099.1736 deg RA of node: 018.9107 deg Eccentricity: 0.0014007 Arg of perigee: 353.1024 deg Mean anomaly: 111.0661 deg Mean motion: 14.12141575 rev/day Decay rate: 9.0e-07 rev/day^2 Epoch rev: 49951 Checksum: 296
Satellite: NOAA-19 Catalog number: 33591 Epoch time: 15029.50883803 Element set: 550 Inclination: 098.9744 deg RA of node: 339.1848 deg Eccentricity: 0.0013798 Arg of perigee: 197.1633 deg Mean anomaly: 296.7421 deg Mean motion: 14.11862167 rev/day Decay rate: 2.62e-06 rev/day^2 Epoch rev: 30792 Checksum: 337
/EX SB KEPS @ AMSAT $ORB15029.M Orbital Elements 15029.MISC
HR AMSAT ORBITAL ELEMENTS FOR MANNED AND MISCELLANEOUS SATELLITES FROM WA5QGD FORT WORTH,TX January 29, 2015 BID: ORB15029.M TO ALL RADIO AMATEURS BT
Satellite: HUBBLE Catalog number: 20580 Epoch time: 15028.62739583 Element set: 210 Inclination: 028.4717 deg RA of node: 353.9520 deg Eccentricity: 0.0002938 Arg of perigee: 176.7707 deg Mean anomaly: 153.7168 deg Mean motion: 15.06695676 rev/day Decay rate: 2.860e-05 rev/day^2 Epoch rev: 15873 Checksum: 320
Satellite: ISS Catalog number: 25544 Epoch time: 15029.56758670 Element set: 796 Inclination: 051.6483 deg RA of node: 056.2038 deg Eccentricity: 0.0005834 Arg of perigee: 303.7241 deg Mean anomaly: 193.7872 deg Mean motion: 15.54136617 rev/day Decay rate: 1.1231e-04 rev/day^2 Epoch rev: 92646 Checksum: 312
Satellite: CO-58 Catalog number: 28895 Epoch time: 15028.42962833 Element set: 980 Inclination: 097.8218 deg RA of node: 223.5112 deg Eccentricity: 0.0017355 Arg of perigee: 023.3942 deg Mean anomaly: 336.8047 deg Mean motion: 14.62448528 rev/day Decay rate: 7.23e-06 rev/day^2 Epoch rev: 49316 Checksum: 330
Satellite: FALCON Catalog number: 30776 Epoch time: 15028.81327302 Element set: 62 Inclination: 035.4274 deg RA of node: 152.7460 deg Eccentricity: 0.0002683 Arg of perigee: 129.3080 deg Mean anomaly: 004.6761 deg Mean motion: 15.20990274 rev/day Decay rate: 1.0870e-04 rev/day^2 Epoch rev: 43504 Checksum: 267
Satellite: MAST Catalog number: 31126 Epoch time: 15028.69046947 Element set: 263 Inclination: 097.9433 deg RA of node: 003.2251 deg Eccentricity: 0.0091465 Arg of perigee: 011.9269 deg Mean anomaly: 039.7628 deg Mean motion: 14.55762363 rev/day Decay rate: 1.036e-05 rev/day^2 Epoch rev: 41319 Checksum: 299
Satellite: CAPE1 Catalog number: 31130 Epoch time: 15028.88723217 Element set: 268 Inclination: 097.9651 deg RA of node: 000.3796 deg Eccentricity: 0.0098506 Arg of perigee: 030.3417 deg Mean anomaly: 330.3432 deg Mean motion: 14.55091482 rev/day Decay rate: 1.673e-05 rev/day^2 Epoch rev: 41262 Checksum: 284
Satellite: COMPASS Catalog number: 32787 Epoch time: 15028.81482212 Element set: 165 Inclination: 097.6720 deg RA of node: 080.7216 deg Eccentricity: 0.0014366 Arg of perigee: 150.7630 deg Mean anomaly: 209.4395 deg Mean motion: 14.89650889 rev/day Decay rate: 3.032e-05 rev/day^2 Epoch rev: 36575 Checksum: 312
Satellite: AAUSAT2 Catalog number: 32788 Epoch time: 15029.10231249 Element set: 152 Inclination: 097.6734 deg RA of node: 082.2895 deg Eccentricity: 0.0013749 Arg of perigee: 147.3069 deg Mean anomaly: 212.9003 deg Mean motion: 14.90568731 rev/day Decay rate: 3.840e-05 rev/day^2 Epoch rev: 36587 Checksum: 314
Satellite: DO-64 Catalog number: 32789 Epoch time: 15028.17699029 Element set: 204 Inclination: 097.6922 deg RA of node: 090.3433 deg Eccentricity: 0.0012350 Arg of perigee: 133.6871 deg Mean anomaly: 288.0671 deg Mean motion: 14.97267131 rev/day Decay rate: 7.518e-05 rev/day^2 Epoch rev: 36611 Checksum: 321
Satellite: CO-66 Catalog number: 32791 Epoch time: 15028.72796974 Element set: 147 Inclination: 097.6714 deg RA of node: 078.8796 deg Eccentricity: 0.0014967 Arg of perigee: 156.1651 deg Mean anomaly: 204.0262 deg Mean motion: 14.87940418 rev/day Decay rate: 2.689e-05 rev/day^2 Epoch rev: 36557 Checksum: 366
Satellite: RS-30 Catalog number: 32953 Epoch time: 15029.31701933 Element set: 686 Inclination: 082.5014 deg RA of node: 060.6056 deg Eccentricity: 0.0018976 Arg of perigee: 026.6368 deg Mean anomaly: 333.5681 deg Mean motion: 12.43055759 rev/day Decay rate: 1.0e-07 rev/day^2 Epoch rev: 30335 Checksum: 290
Satellite: METEOR-M Catalog number: 35865 Epoch time: 15029.24161280 Element set: 295 Inclination: 098.5198 deg RA of node: 074.4358 deg Eccentricity: 0.0002609 Arg of perigee: 144.4297 deg Mean anomaly: 215.7059 deg Mean motion: 14.21983702 rev/day Decay rate: 5.7e-07 rev/day^2 Epoch rev: 27846 Checksum: 319
Satellite: RS-38 Catalog number: 35869 Epoch time: 15029.30151969 Element set: 201 Inclination: 098.5122 deg RA of node: 074.1908 deg Eccentricity: 0.0004821 Arg of perigee: 146.9107 deg Mean anomaly: 213.2374 deg Mean motion: 14.22266215 rev/day Decay rate: 1.3e-07 rev/day^2 Epoch rev: 27851 Checksum: 286
Satellite: JUGNU Catalog number: 37839 Epoch time: 15028.21040994 Element set: 782 Inclination: 019.9622 deg RA of node: 331.0452 deg Eccentricity: 0.0018882 Arg of perigee: 304.3407 deg Mean anomaly: 196.4697 deg Mean motion: 14.12411403 rev/day Decay rate: 4.24e-06 rev/day^2 Epoch rev: 17040 Checksum: 281
Satellite: SRMSAT Catalog number: 37841 Epoch time: 15029.22707845 Element set: 787 Inclination: 019.9733 deg RA of node: 348.7581 deg Eccentricity: 0.0011691 Arg of perigee: 246.3457 deg Mean anomaly: 244.6803 deg Mean motion: 14.10434646 rev/day Decay rate: 4.06e-06 rev/day^2 Epoch rev: 17030 Checksum: 304
Satellite: RAX-2 Catalog number: 37853 Epoch time: 15028.33634012 Element set: 26 Inclination: 101.7045 deg RA of node: 170.9684 deg Eccentricity: 0.0203444 Arg of perigee: 123.8675 deg Mean anomaly: 297.6551 deg Mean motion: 14.93674056 rev/day Decay rate: 1.0164e-04 rev/day^2 Epoch rev: 17621 Checksum: 293
Satellite: AUBIESAT Catalog number: 37854 Epoch time: 15028.91566097 Element set: 26 Inclination: 101.7109 deg RA of node: 174.5946 deg Eccentricity: 0.0200014 Arg of perigee: 117.8298 deg Mean anomaly: 039.4525 deg Mean motion: 14.95556813 rev/day Decay rate: 1.0185e-04 rev/day^2 Epoch rev: 17638 Checksum: 314
Satellite: HRBE Catalog number: 37855 Epoch time: 15028.32731569 Element set: 46 Inclination: 101.7098 deg RA of node: 172.6733 deg Eccentricity: 0.0202668 Arg of perigee: 121.7755 deg Mean anomaly: 240.3370 deg Mean motion: 14.94537213 rev/day Decay rate: 1.0244e-04 rev/day^2 Epoch rev: 17624 Checksum: 293
